Location: Overspoor
(51.4747°N, 5.6641°E)
Time: 19:56:12
(UTC+02:00)

OTV 5 (USA 277) - Visible Passes

Search period start: 15 October 2018 00:00
Search period end: 25 October 2018 00:00
Orbit: 387 x 394 km, 54.5° (Epoch: 08 September)

Date Brightness Start Highest point End Pass type
(mag) Time Alt. Az. Time Alt. Az. Time Alt. Az.
15 Oct ? 05:19:58 20° ESE 05:19:58 20° ESE 05:21:07 10° ESE visible
15 Oct ? 06:52:23 18° WSW 06:53:33 22° SW 06:56:06 10° SSE visible
16 Oct ? 05:58:34 26° SSE 05:58:34 26° SSE 06:00:20 10° SE visible
17 Oct ? 06:37:17 13° SSW 06:37:17 13° SSW 06:38:11 10° SSW visible
